Starlink 11441

operational
NORAD ID: 62413 Int'l Des: 2024-249 Owner: SPXS Country: US Constellation: starlink
LEOCIRCULAR

关于 Starlink 11441

正在加载描述...

实时位置

正在加载3D地球...

即将过境

高度历史

Altitude vs Time

uPlot chart will show altitude changes over time

两行轨道根数

1 62413U 24249E 25304.80559510 .00161631 00000-0 12384-2 0 9992
2 62413 43.0002 224.2460 0001715 271.0079 89.0592 15.70848078 49214
Epoch: Oct 31, 2025 • Age: 45 hours

当前状态

高度 354.3 km
速度 7.70 km/s
星下点 10.79°N, 94.92°E
发射日期 Dec 23, 2024
运行时间 0.8 years
类型 internet

技术详情

分类 Payload
质量 960.00 kg
干质量 910.00 kg
总质量 960.00 kg
长度 0.30 m
直径 4.10 m
跨度 29.00 m
形状 Box + pan
制造商 SPXS
平台类型 Starlink V2MD
阶段状态 In Orbit
所有者/国家 SPXS/US

大型星座

Loading constellations...